[[{"header":{"parameterUnit":"m.s-1","parameterCategory":1,"la1":30.2991,"la2":30.254,"lo1":-89.0895,"lo2":-89.0444,"dy":0.0017,"dx":0.0017,"nx":28,"ny":28,"refTime":"2023-10-23T21:00:00:Z","depth":0,"parameterNumber":2,"parameterNumberName":"U-component_of_WINDS"},"data":[0,0,0,0,0,0,0,0,0,0,0,0,0,0,0,0,0,0,0,0,0,0,0,0,0,0,0,0,0,0,0,0,0,0,0,0,0,0,0,0,0,0,0,0,0,0,0,0,0,0,0,0,0,0,0,0,0,0,-3.0857,-3.0857,0,-3.0906,-3.0907,-3.0907,-3.0863,-3.0861,-3.0859,-3.0857,-3.0908,-3.0911,-3.0914,0,0,0,0,0,0,0,0,0,0,0,0,0,-3.0726,-3.0729,-3.0857,-3.0857,-3.0858,-3.0906,-3.0907,-3.0907,-3.0863,-3.0861,-3.0859,-3.0857,-3.0907,-3.0911,-3.0915,0,0,0,0,0,0,0,0,0,0,0,0,0,-3.078,-3.073,-3.0857,-3.0842,-3.0841,-3.0906,-3.0907,-3.0907,-3.0863,-3.0861,-3.0858,-3.0856,-3.0906,-3.0911,-3.0915,-3.0998,0,0,-3.0929,-3.0931,0,0,0,0,0,0,0,0,-3.0777,-3.0785,-3.0843,-3.0843,-3.0842,-3.0875,-3.0879,-3.0938,-3.0864,-3.0855,-3.0857,-3.0854,-3.09,-3.0905,-3.092,-3.1,-3.1002,-3.093,-3.0932,-3.0934,-3.0936,0,0,0,0,0,0,0,-3.0773,-3.0782,-3.0876,-3.0844,-3.0843,-3.0833,-3.0838,-3.089,-3.0892,-3.0855,-3.0852,-3.0859,-3.0899,-3.0916,-3.0921,-3.1003,-3.0929,-3.0934,-3.0936,-3.0938,-3.1155,-3.1158,0,0,0,0,0,0,-3.0771,-3.0779,-3.0875,-3.0878,-3.0802,-3.0838,-3.0843,-3.0867,-3.0891,-3.0892,-3.0861,-3.0857,-3.0909,-3.0915,-3.0922,-3.1021,-3.0934,-3.0939,-3.0941,-3.1152,-3.1155,-3.1159,0,0,0,0,0,0,-3.0768,-3.078,-3.0873,-3.0828,-3.0839,-3.0843,-3.0871,-3.087,-3.0886,-3.0895,-3.0896,-3.0878,-3.0907,-3.0916,-3.098,-3.1022,-3.0941,-3.0945,-3.1148,-3.1153,-3.1157,-3.1218,0,0,0,0,0,0,-3.0765,-3.0779,-3.081,-3.0829,-3.0841,-3.0928,-3.0873,-3.0873,-3.0894,-3.0889,-3.0911,-3.0912,-3.0906,-3.0973,-3.0984,-3.1027,-3.0948,-3.1144,-3.115,-3.1156,-3.1212,-3.1224,-3.1234,0,0,0,0,0,-3.076,-3.0825,-3.0812,-3.0823,-3.088,-3.0931,-3.0938,-3.0929,-3.0898,-3.0929,-3.0935,-3.0911,-3.1016,-3.098,-3.0992,-3.1036,-3.1142,-3.1149,-3.1155,-3.1207,-3.1221,-3.1234,0,0,0,0,0,0,-3.081,-3.0827,-3.0812,-3.0885,-3.0907,-3.0923,-3.0962,-3.0945,-3.0976,-3.097,-3.0958,-3.0963,-3.103,-3.104,-3.1,-3.1118,-3.1074,-3.1083,-3.1109,-3.1123,-3.1134,-3.1129,-3.0952,0,0,0,0,0,-3.083,-3.087,-3.0882,-3.0945,-3.0957,-3.0958,-3.098,-3.0972,-3.0994,-3.1003,-3.1013,-3.1036,-3.1074,-3.1099,-3.1135,-3.1214,-3.1218,-3.1251,-3.1262,-3.1271,-3.1279,-3.1322,-3.1337,-3.1181,-3.1181,-3.1181,0,0,-3.0871,-3.0885,-3.091,-3.0956,-3.0972,-3.1014,-3.0966,-3.1012,-3.1043,-3.101,-3.107,-3.1079,-3.1104,-3.1176,-3.1208,-3.1186,-3.1323,-3.1279,-3.1287,-3.129,-3.133,-3.1345,-3.1358,-3.1186,-3.1185,-3.1184,0,0,-3.0966,-3.0981,-3.1035,-3.1052,-3.1077,-3.1078,-3.1091,-3.1111,-3.1115,-3.1176,-3.1152,-3.119,-3.1255,-3.1274,-3.1292,-3.1397,-3.1377,-3.141,-3.1466,-3.1508,-3.1521,-3.1532,-3.1569,-3.1582,-3.1418,-3.1418,-3.1418,0,-3.1013,-3.1075,-3.1065,-3.1113,-3.1134,-3.1107,-3.1162,-3.1179,-3.1215,-3.123,-3.1205,-3.1288,-3.1303,-3.1379,-3.1405,-3.1421,-3.1436,-3.1406,-3.152,-3.153,-3.154,-3.1576,-3.159,-3.1422,-3.1421,-3.1421,-3.142,0,-3.1132,-3.1175,-3.1216,-3.1251,-3.1277,-3.1328,-3.1327,-3.1355,-3.1345,-3.1349,-3.1412,-3.1429,-3.1468,-3.1486,-3.1476,-3.1561,-3.1547,-3.1521,-3.1476,-3.1559,-3.1592,-3.1606,-3.1427,-3.1426,-3.1425,-3.1424,0,0,-3.1258,-3.1288,-3.1303,-3.1319,-3.1346,-3.1379,-3.143,-3.1468,-3.1492,-3.1519,-3.1561,-3.1619,-3.1595,-3.1616,-3.1609,-3.1647,-3.1729,-3.1617,-3.1617,-3.1636,-3.1824,-3.1842,-3.1858,-3.1717,-3.1719,-3.1721,-3.1822,0,-3.1353,-3.1441,-3.1435,-3.1518,-3.1558,-3.1534,-3.1579,-3.16,-3.1606,-3.1641,-3.1648,-3.1688,-3.1655,-3.1667,-3.1704,-3.1711,-3.1767,-3.1704,-3.1756,-3.1758,-3.1749,-3.1875,-3.1894,-3.1988,-3.1835,-3.1837,-3.1839,0,-3.1476,-3.1506,-3.1593,-3.1615,-3.1632,-3.1672,-3.1707,-3.1741,-3.1766,-3.1767,-3.1792,-3.1779,-3.1832,-3.1787,-3.186,-3.1817,-3.1839,-3.1846,-3.185,-3.1853,-3.1802,-3.1881,-3.2018,-3.2032,-3.1859,-3.1857,-3.1856,0,-3.1558,-3.1621,-3.1681,-3.1696,-3.1723,-3.1752,-3.1765,-3.1787,-3.181,-3.1842,-3.1857,-3.1894,-3.1915,-3.1944,-3.1942,-3.191,-3.2016,-3.1971,-3.2019,-3.2019,-3.2041,-3.2039,-3.2182,-3.2057,-3.2057,-3.2057,-3.2056,0,-3.1664,-3.1718,-3.1719,-3.1756,-3.1816,-3.181,-3.187,-3.188,-3.19,-3.1939,-3.1921,-3.1959,-3.1955,-3.1993,-3.1992,-3.2052,-3.2062,-3.2065,-3.2064,-3.2066,-3.2065,-3.2078,-3.2071,-3.206,-3.206,-3.2059,-3.2058,0,-3.1765,-3.1768,-3.1832,-3.1853,-3.186,-3.1903,-3.1921,-3.1957,-3.1962,-3.2012,-3.2023,-3.2031,-3.2075,-3.2077,-3.2127,-3.2127,-3.22,-3.2193,-3.2192,-3.219,-3.2238,-3.2233,-3.2393,-3.2413,-3.2276,-3.2277,-3.2278,0,-3.1832,-3.1873,-3.1899,-3.1924,-3.1938,-3.1979,-3.2003,-3.1999,-3.2025,-3.2058,-3.209,-3.2132,-3.2165,-3.2237,-3.2248,-3.2287,-3.228,-3.2333,-3.2285,-3.2286,-3.228,-3.2277,-3.2281,-3.2342,-3.2343,-3.2344,-3.2346,0,-3.1951,-3.195,-3.1986,-3.2023,-3.2052,-3.2081,-3.2108,-3.2129,-3.2129,-3.2159,-3.2204,-3.223,-3.2283,-3.2325,-3.2364,-3.2377,-3.2362,-3.2361,-3.2374,-3.2375,-3.2373,-3.2375,-3.2216,-3.2357,-3.2356,-3.2355,-3.2354,-3.2354,-3.2036,-3.2072,-3.2096,-3.2136,-3.2156,-3.2182,-3.2217,-3.2226,-3.2263,-3.2305,-3.2301,-3.2351,-3.2377,-3.2427,-3.2444,-3.2484,-3.2466,-3.2485,-3.2489,-3.2494,-3.2499,-3.2368,-3.2491,-3.2491,-3.2491,-3.249,-3.249,0,-3.2153,-3.2168,-3.2205,-3.2243,-3.2276,-3.2259,-3.2288,-3.2316,-3.236,-3.2385,-3.2419,-3.2471,-3.2513,-3.2528,-3.2569,-3.2598,-3.2592,-3.2609,-3.2606,-3.2609,-3.2513,-3.2497,-3.2613,-3.2613,-3.2613,-3.2613,-3.2613,-3.2613,-3.2217,-3.2277,-3.228,-3.235,-3.2364,-3.2412,-3.2431,-3.2455,-3.2475,-3.2534,-3.2568,-3.2578,-3.26,-3.2642,-3.268,-3.2684,-3.2699,-3.2719,-3.272,-3.2629,-3.2616,-3.2604,-3.2589,-3.2723,-3.2723,-3.2813,-3.2814,-3.2814]},{"header":{"parameterUnit":"m.s-1","parameterCategory":1,"la1":30.2991,"la2":30.254,"lo1":-89.0895,"lo2":-89.0444,"dy":0.0017,"dx":0.0017,"nx":28,"ny":28,"refTime":"2023-10-23T21:00:00:Z","depth":0,"parameterNumber":3,"parameterNumberName":"V-component_of_WINDS"},"data":[0,0,0,0,0,0,0,0,0,0,0,0,0,0,0,0,0,0,0,0,0,0,0,0,0,0,0,0,0,0,0,0,0,0,0,0,0,0,0,0,0,0,0,0,0,0,0,0,0,0,0,0,0,0,0,0,0,0,1.4169,1.4169,0,1.4164,1.4164,1.4164,1.4181,1.4181,1.4182,1.4182,1.4174,1.4173,1.4172,0,0,0,0,0,0,0,0,0,0,0,0,0,1.4192,1.4191,1.4169,1.4169,1.4169,1.4164,1.4164,1.4164,1.4181,1.4181,1.4182,1.4182,1.4174,1.4173,1.4172,0,0,0,0,0,0,0,0,0,0,0,0,0,1.4184,1.4191,1.4169,1.4177,1.4178,1.4164,1.4164,1.4164,1.418,1.4181,1.4182,1.4183,1.4174,1.4173,1.4172,1.415,0,0,1.4169,1.4168,0,0,0,0,0,0,0,0,1.4184,1.4183,1.4176,1.4176,1.4177,1.4174,1.4169,1.4159,1.418,1.4179,1.4182,1.4183,1.4173,1.4172,1.4169,1.4149,1.4149,1.4169,1.4168,1.4167,1.4167,0,0,0,0,0,0,0,1.4185,1.4183,1.4167,1.4176,1.4177,1.418,1.418,1.4167,1.4172,1.4179,1.4181,1.418,1.4173,1.417,1.4169,1.4149,1.4169,1.4168,1.4167,1.4167,1.4112,1.4111,0,0,0,0,0,0,1.4185,1.4184,1.4167,1.4167,1.4183,1.4179,1.4179,1.4174,1.4172,1.4172,1.4179,1.4181,1.4171,1.417,1.4169,1.4143,1.4168,1.4166,1.4166,1.4113,1.4112,1.4111,0,0,0,0,0,0,1.4185,1.4183,1.4167,1.4176,1.4174,1.4178,1.4172,1.4173,1.417,1.4172,1.4172,1.4175,1.4172,1.417,1.4155,1.4143,1.4166,1.4165,1.4114,1.4112,1.4111,1.4092,0,0,0,0,0,0,1.4186,1.4183,1.4175,1.4175,1.4173,1.4154,1.4172,1.4173,1.4169,1.4171,1.4168,1.4168,1.4173,1.4156,1.4154,1.4142,1.4164,1.4115,1.4113,1.4112,1.4094,1.409,1.4087,0,0,0,0,0,1.4186,1.4169,1.4175,1.4173,1.4164,1.4154,1.4152,1.4158,1.4168,1.416,1.4161,1.4169,1.4145,1.4155,1.4152,1.414,1.4115,1.4113,1.4112,1.4095,1.4091,1.4088,0,0,0,0,0,0,1.4166,1.4169,1.4175,1.4158,1.4155,1.4156,1.4146,1.4153,1.4147,1.4149,1.4156,1.4155,1.4139,1.4138,1.4148,1.4119,1.4132,1.4129,1.412,1.4116,1.4113,1.4114,1.4163,0,0,0,0,0,1.416,1.4152,1.4155,1.4139,1.4138,1.4142,1.4138,1.4143,1.414,1.4139,1.4139,1.4135,1.4127,1.4122,1.4114,1.4094,1.4094,1.4084,1.4081,1.4078,1.4076,1.4066,1.4062,1.4105,1.4105,1.4105,0,0,1.4146,1.4147,1.4141,1.4135,1.4134,1.4125,1.4141,1.4131,1.4124,1.4137,1.4123,1.4123,1.4119,1.4102,1.4094,1.41,1.4065,1.4076,1.4074,1.4073,1.4064,1.406,1.4056,1.4104,1.4104,1.4104,0,0,1.4117,1.4116,1.4104,1.4103,1.4101,1.4105,1.4102,1.4102,1.4103,1.4089,1.4098,1.4091,1.4076,1.4074,1.4071,1.4042,1.4049,1.4039,1.4023,1.4013,1.401,1.4007,1.3997,1.3993,1.4037,1.4037,1.4037,0,1.41,1.4088,1.4096,1.4086,1.4083,1.4095,1.4082,1.408,1.4076,1.4073,1.4081,1.4065,1.4063,1.4045,1.4039,1.4035,1.4032,1.4039,1.401,1.4007,1.4004,1.3995,1.3991,1.4036,1.4036,1.4036,1.4036,0,1.4067,1.4059,1.4049,1.4046,1.4042,1.403,1.4036,1.4031,1.4036,1.4039,1.4025,1.4024,1.4017,1.4013,1.4017,1.3996,1.4,1.4009,1.4022,1.3999,1.399,1.3987,1.4034,1.4035,1.4035,1.4035,0,0,1.4024,1.4027,1.4023,1.4023,1.4022,1.4016,1.4005,1.3999,1.3995,1.3992,1.3983,1.3971,1.3979,1.3976,1.398,1.3972,1.395,1.3981,1.3981,1.3976,1.3927,1.3921,1.3917,1.3955,1.3954,1.3954,1.3927,0,1.3996,1.3979,1.3986,1.3968,1.396,1.3973,1.3963,1.3962,1.3964,1.3957,1.3959,1.3952,1.3963,1.3961,1.3953,1.3954,1.394,1.3956,1.3946,1.3946,1.3947,1.3912,1.3905,1.3881,1.3924,1.3923,1.3923,0,1.3961,1.3958,1.3939,1.3941,1.3939,1.393,1.3926,1.392,1.3919,1.3921,1.3918,1.3925,1.3914,1.3927,1.3912,1.3923,1.3919,1.392,1.3919,1.3918,1.3933,1.3911,1.3873,1.3869,1.3918,1.3918,1.3919,0,1.3932,1.3923,1.3911,1.391,1.3912,1.3906,1.3906,1.3906,1.3903,1.3899,1.3897,1.3891,1.3888,1.3884,1.3889,1.3898,1.3874,1.3887,1.3875,1.3875,1.3869,1.3869,1.383,1.3867,1.3867,1.3867,1.3867,0,1.39,1.3888,1.3899,1.3891,1.3878,1.3887,1.3873,1.3875,1.3875,1.3868,1.3877,1.387,1.3878,1.3871,1.3875,1.3862,1.3861,1.3862,1.3863,1.3861,1.3861,1.3859,1.3861,1.3866,1.3866,1.3866,1.3866,0,1.3866,1.3872,1.386,1.3864,1.3864,1.3854,1.3857,1.385,1.3854,1.3845,1.3843,1.3848,1.3841,1.3846,1.3838,1.3841,1.3825,1.3828,1.3825,1.3826,1.3814,1.3815,1.3772,1.3767,1.3806,1.3806,1.3806,0,1.3845,1.3836,1.384,1.3836,1.3836,1.383,1.3827,1.3835,1.3832,1.3831,1.3824,1.3818,1.3814,1.3802,1.3804,1.3799,1.3802,1.3788,1.3801,1.38,1.3802,1.3803,1.3802,1.3785,1.3784,1.3784,1.3784,0,1.3808,1.3812,1.3808,1.3805,1.3801,1.3799,1.3798,1.3794,1.3802,1.3798,1.3791,1.3788,1.3781,1.3775,1.3771,1.3771,1.3779,1.3779,1.3776,1.3774,1.3773,1.3774,1.3818,1.378,1.3781,1.3781,1.3781,1.3781,1.378,1.3773,1.3775,1.377,1.377,1.3769,1.3763,1.3766,1.3761,1.3757,1.3762,1.3754,1.3754,1.3749,1.3749,1.3742,1.3748,1.3744,1.3743,1.3741,1.374,1.3774,1.3742,1.3742,1.3742,1.3742,1.3742,0,1.3743,1.3745,1.3741,1.374,1.3736,1.3745,1.3744,1.374,1.3733,1.3733,1.3729,1.3722,1.3716,1.3719,1.3714,1.3709,1.3712,1.3707,1.3708,1.3708,1.3735,1.3738,1.3705,1.3705,1.3705,1.3705,1.3705,1.3705,1.3724,1.3714,1.3718,1.3707,1.3709,1.3703,1.3702,1.37,1.37,1.3692,1.3688,1.3691,1.3691,1.3687,1.3682,1.3683,1.3681,1.3675,1.3677,1.3702,1.3706,1.3709,1.3713,1.3675,1.3674,1.3651,1.3651,1.3651]}]]